Location: Ermatingen
(47.6706°N, 9.0857°E)
Time: 02:05:55
(UTC+00:00)

Cosmos 1428 Rocket - Pass Details

Date: 28 November 2021
Orbit: 949 x 987 km, 82.9° (Epoch: 17 January)

Event Time Altitude Azimuth Distance (km) Brightness Sun altitude
Rises 18:03:32 0° 347° (NNW) 3,633 7.6 -24.2°
Reaches altitude 10° 18:06:04 10° 344° (NNW) 2,684 6.9 -24.7°
Maximum altitude 18:12:02 58° 267° (W) 1,103 5.0 -25.7°
Drops below altitude 10° 18:18:01 10° 190° (S) 2,678 6.9 -26.7°
Sets 18:20:32 0° 187° (S) 3,625 7.6 -27.1°
